Total_Precipitation_Accumulation
1.49 1.71 2.26 2.02 1.60 1.54 1.54 1.43 1.39 1.25 1.26 1.34 1.37 1.27 1.27 1.34 1.38 1.47 1.59 1.75 1.81 1.76 1.61 1.61 1.52 1.47 1.33 1.17 1.18 1.05 0.99 0.93 0.91 0.93 0.99 0.96 1.02 1.27 1.58 1.66 1.75 1.19 1.17
1.01 1.26 1.79 1.76 1.55 1.49 1.43 1.35 1.33 1.33 1.34 1.33 1.37 1.36 1.44 1.49 1.43 1.47 1.70 1.78 1.71 1.60 1.45 1.32 1.23 1.12 1.02 0.93 0.88 0.81 0.88 0.97 1.04 1.21 1.18 0.99 1.03 1.28 1.52 1.55 1.72 1.12 1.04
0.80 0.93 1.09 1.28 1.26 1.26 1.31 1.28 1.30 1.37 1.38 1.38 1.37 1.42 1.47 1.53 1.56 1.67 1.69 1.53 1.45 1.42 1.28 1.18 1.02 0.84 0.78 0.72 0.71 0.76 0.92 1.11 1.37 1.55 1.65 1.03 0.78 1.18 1.28 1.28 1.18 1.01 0.97
0.77 0.81 0.80 1.02 1.11 1.09 1.22 1.26 1.37 1.37 1.30 1.26 1.28 1.30 1.35 1.54 1.59 1.56 1.45 1.35 1.36 1.26 1.15 1.00 0.83 0.69 0.63 0.58 0.63 0.82 1.05 1.19 1.45 1.87 1.72 0.89 0.58 0.81 0.99 1.03 0.95 0.94 0.88
0.86 0.92 0.97 1.07 1.08 1.12 1.21 1.31 1.32 1.23 1.19 1.25 1.32 1.35 1.42 1.46 1.40 1.33 1.30 1.24 1.19 1.08 0.97 0.82 0.71 0.63 0.59 0.57 0.66 0.86 1.09 1.21 1.58 1.69 1.09 0.94 0.91 0.91 0.88 0.96 0.99 0.89 0.77
0.97 1.02 1.03 1.05 1.00 1.00 1.02 1.12 1.23 1.23 1.18 1.24 1.28 1.31 1.28 1.25 1.26 1.13 1.04 1.02 1.01 0.95 0.83 0.75 0.65 0.62 0.61 0.64 0.71 0.86 1.14 1.39 1.48 1.03 0.80 0.74 0.77 0.94 0.91 1.09 1.17 0.99 0.82
0.93 1.01 0.95 0.99 0.99 0.95 0.92 0.97 1.08 1.17 1.19 1.18 1.15 1.16 1.14 1.10 1.08 0.99 0.90 0.87 0.86 0.78 0.69 0.68 0.64 0.64 0.66 0.69 0.75 0.87 1.15 1.54 1.21 0.83 0.82 0.83 0.78 0.82 0.99 1.23 1.41 1.25 1.02
0.98 0.98 0.98 1.07 1.05 1.02 0.96 0.98 0.98 1.06 1.15 1.11 1.05 1.02 0.97 0.89 0.91 0.93 0.91 0.81 0.75 0.66 0.62 0.63 0.62 0.65 0.70 0.74 0.83 0.91 1.15 1.25 0.80 0.72 0.69 0.70 0.63 0.72 1.00 1.23 1.41 1.40 1.29
1.14 1.01 1.00 1.08 1.09 1.04 1.11 1.03 0.97 0.96 0.98 0.94 0.89 0.89 0.87 0.81 0.82 0.85 0.94 0.90 0.74 0.68 0.67 0.68 0.68 0.68 0.70 0.80 0.84 0.92 1.08 1.16 0.92 0.78 0.65 0.66 0.67 0.90 1.29 1.41 1.41 1.41 1.40
1.54 1.32 1.19 1.13 1.04 0.98 0.98 0.97 0.95 0.92 0.86 0.87 0.85 0.82 0.87 0.87 0.84 0.90 0.94 0.94 0.85 0.83 0.90 0.87 0.84 0.81 0.77 0.78 0.86 0.98 1.05 1.02 0.98 0.85 0.73 0.60 0.76 1.08 1.43 1.56 1.58 1.58 1.49
1.78 1.64 1.39 1.16 1.07 1.03 0.92 0.88 1.01 1.03 0.97 0.96 0.95 0.93 1.05 1.19 1.04 1.10 1.03 1.16 1.16 1.11 1.20 1.24 1.25 1.17 1.06 0.93 1.07 1.18 1.07 1.07 1.12 1.00 0.80 0.66 0.89 1.19 1.48 1.60 1.61 1.61 1.53
2.00 1.75 1.57 1.35 1.12 0.99 0.87 1.02 1.29 1.11 1.12 1.20 1.26 1.26 1.50 1.73 1.70 1.13 1.22 1.50 1.63 1.69 1.74 1.80 1.85 1.60 1.35 1.26 1.69 1.86 1.24 1.19 1.27 1.19 1.04 0.99 1.24 1.49 1.73 1.67 1.58 1.59 1.51
2.30 2.03 1.84 1.57 1.28 1.09 1.16 1.07 1.23 1.41 1.52 1.52 1.49 1.51 1.71 1.59 1.36 1.23 1.39 1.69 1.95 2.03 2.02 2.25 2.27 1.93 1.98 2.24 2.20 1.97 1.48 1.61 1.65 1.58 1.46 1.55 1.70 1.97 2.33 2.11 1.77 1.65 1.60
2.45 2.32 2.27 1.87 1.69 1.72 1.50 1.24 1.15 1.19 1.33 1.51 1.76 1.70 1.81 2.03 1.93 1.86 1.97 2.03 2.16 2.38 2.76 2.64 2.79 2.64 2.61 2.52 2.42 2.23 1.99 2.06 2.03 2.12 2.01 1.82 1.89 2.21 2.72 2.69 2.24 1.91 1.75
2.47 2.47 2.45 2.23 2.06 2.13 1.92 1.71 1.44 1.55 1.56 1.64 1.77 1.90 1.85 2.15 2.37 2.36 2.34 2.31 2.18 2.25 2.49 2.69 2.70 3.04 3.18 2.80 2.42 2.25 2.28 2.37 2.26 2.23 2.11 1.96 1.91 2.13 2.57 2.82 2.70 2.47 2.19
2.75 2.78 2.56 2.47 2.47 2.47 2.40 2.32 2.19 1.92 2.01 1.92 1.87 1.87 1.92 2.19 2.53 2.68 2.60 2.52 2.36 2.32 2.49 2.69 2.87 3.34 3.29 3.11 2.68 2.41 2.36 2.34 2.17 2.10 2.20 2.34 2.17 2.08 2.23 2.61 2.91 2.86 2.69
3.09 3.11 3.09 3.04 3.17 3.13 2.97 2.84 2.61 2.39 2.24 2.20 2.27 2.27 2.17 2.26 2.56 2.59 2.45 2.36 2.42 2.53 2.73 2.75 2.96 3.18 2.90 2.92 2.71 2.47 2.28 2.11 1.99 1.97 2.15 2.32 2.18 2.11 2.25 2.48 2.76 2.88 3.00
3.25 3.42 3.60 3.57 3.60 3.44 3.45 3.40 3.15 2.91 2.74 2.55 2.49 2.52 2.37 2.35 2.44 2.67 2.46 2.32 2.64 2.67 2.80 3.10 3.25 3.23 3.17 3.18 2.93 2.54 2.29 2.19 1.89 1.78 1.76 1.92 2.13 1.92 2.22 2.45 2.52 2.66 3.00
3.65 3.92 4.12 4.13 3.99 3.74 3.79 3.75 3.62 3.48 3.16 2.80 2.62 2.53 2.38 2.35 2.49 2.80 2.75 2.85 2.91 3.01 3.06 2.92 3.35 3.41 3.30 3.32 2.90 2.67 2.32 2.06 1.87 1.67 1.59 1.58 1.80 2.01 2.12 2.16 2.25 2.41 2.89
4.14 4.55 4.40 4.31 4.52 4.42 4.26 4.11 3.85 3.40 2.98 2.83 2.79 2.61 2.45 2.48 2.59 3.02 2.88 2.86 2.95 3.11 3.18 3.16 3.33 3.37 3.11 3.09 2.80 2.69 2.29 1.82 1.72 1.65 1.48 1.48 1.58 1.63 1.90 2.20 2.40 2.15 2.49
4.20 4.59 4.74 4.76 4.68 4.51 4.14 3.83 3.59 3.35 3.14 2.89 2.71 2.63 2.52 2.42 2.60 3.03 2.87 3.11 3.07 3.06 3.09 3.15 3.28 3.21 2.93 3.11 3.19 2.76 2.23 1.80 1.77 1.54 1.46 1.50 1.54 1.53 1.84 2.22 2.49 2.42 2.17
3.84 4.30 4.60 4.75 4.65 4.27 3.90 3.71 3.58 3.52 3.13 2.83 2.81 2.93 2.76 2.75 2.79 2.82 2.99 2.97 3.03 3.13 3.08 3.08 3.21 3.04 2.70 2.97 3.30 3.35 2.70 2.30 1.87 1.41 1.49 1.58 1.69 1.77 1.82 1.96 2.17 2.39 2.39
3.38 3.69 3.81 3.97 3.94 3.79 3.82 3.83 3.76 3.74 3.31 3.20 3.20 3.20 2.98 2.99 2.99 2.99 2.96 2.90 2.89 2.71 2.76 2.83 2.87 2.89 2.82 2.77 3.09 3.41 2.98 2.50 2.18 1.66 1.53 1.53 1.71 1.96 1.99 2.01 2.06 2.28 2.42
2.92 3.27 3.51 3.56 3.52 3.43 3.54 3.59 3.48 3.27 3.12 3.25 3.53 3.49 3.22 3.00 2.84 2.64 2.57 2.73 2.74 2.55 2.56 2.26 2.40 2.60 2.61 2.47 2.73 2.81 2.85 2.85 2.75 2.10 1.66 1.48 1.60 1.80 1.97 1.90 1.93 2.18 2.46
2.53 2.82 3.07 3.34 3.44 3.38 3.44 3.38 3.40 3.26 3.27 3.32 3.29 3.30 3.11 2.90 2.57 2.24 2.26 2.42 2.40 2.34 2.24 2.14 2.31 2.21 2.16 2.21 2.41 2.62 2.70 2.77 2.67 2.51 2.09 1.98 1.90 1.77 1.74 1.80 2.00 2.11 2.32
2.18 2.31 2.44 2.66 2.94 3.11 3.16 3.14 3.17 3.13 3.12 3.04 2.95 2.83 2.64 2.49 2.22 1.97 1.89 2.04 2.16 2.18 2.13 2.11 2.20 2.10 2.12 2.26 2.26 2.33 2.56 2.57 2.54 2.70 2.32 2.14 2.08 1.81 1.76 1.87 1.88 2.08 2.20